Date,TemperatureHighF,TemperatureAvgF,TemperatureLowF,DewpointHighF,DewpointAvgF,DewpointLowF,HumidityHigh,HumidityAvg,HumidityLow,PressureMaxIn,PressureMinIn,WindSpeedMaxMPH,WindSpeedAvgMPH,GustSpeedMaxMPH,PrecipitationSumIn
2013-1-1,20,4,-13,16,0,-17,87,83,70,0.00,40.00,11,6,17,0.00
2013-1-2,23,16,13,21,14,12,95,92,82,0.00,40.00,16,7,20,0.00
2013-1-3,17,11,6,12,7,1,87,82,71,0.00,40.00,16,10,21,0.00
2013-1-4,27,19,12,16,13,10,91,76,60,0.00,40.00,14,9,20,0.00
2013-1-5,23,16,10,14,11,7,92,82,65,0.00,40.00,14,8,17,0.00
2013-1-6,22,13,7,16,9,1,92,83,75,0.00,40.00,20,9,24,0.00
2013-1-7,36,28,21,25,21,16,93,77,63,0.00,40.00,26,12,33,0.00
2013-1-8,34,26,17,28,23,16,95,87,77,0.00,40.00,16,9,21,0.00
2013-1-9,34,30,23,27,22,18,87,73,63,0.00,40.00,23,12,34,0.00
2013-1-10,39,35,30,34,26,19,97,68,46,0.00,40.00,19,13,25,0.00
2013-1-11,41,37,34,39,36,34,97,97,96,0.00,40.00,15,10,21,0.00
2013-1-12,37,14,4,36,7,-4,96,72,62,0.00,40.00,28,17,37,0.00
2013-1-13,9,4,1,1,-3,-6,76,71,66,0.00,40.00,15,9,18,0.00
2013-1-14,14,9,5,9,2,0,81,74,59,0.00,40.00,17,8,20,0.00
2013-1-15,30,20,10,16,12,7,82,68,46,0.00,40.00,18,11,26,0.00
2013-1-16,37,26,9,32,21,-2,96,82,62,0.00,40.00,17,12,27,0.00
2013-1-17,21,11,2,14,2,-6,81,67,53,0.00,40.00,12,7,16,0.00
2013-1-18,41,31,18,32,25,14,90,78,63,0.00,40.00,17,11,24,0.00
2013-1-19,39,25,2,30,18,-6,94,75,56,0.00,40.00,39,16,52,0.00
2013-1-20,9,3,-2,0,-6,-11,70,65,57,0.00,40.00,24,14,32,0.00
2013-1-21,-2,-6,-11,-11,-14,-18,75,66,61,0.00,40.00,22,14,30,0.00
2013-1-22,7,-2,-10,-2,-10,-17,75,67,60,0.00,40.00,10,6,14,0.00
2013-1-23,17,8,-3,10,-1,-15,89,66,48,0.00,40.00,26,11,34,0.00
2013-1-24,15,4,-5,0,-10,-17,57,53,45,0.00,40.00,19,10,23,0.00
2013-1-25,20,12,2,12,3,-4,77,65,53,0.00,40.00,26,14,37,0.00
2013-1-26,26,13,-1,9,2,-6,83,62,43,0.00,40.00,17,8,23,0.00
2013-1-27,32,30,26,32,23,10,96,75,48,0.00,40.00,17,8,24,0.00
2013-1-28,34,32,31,34,31,30,96,96,96,0.00,40.00,11,4,15,0.00
2013-1-29,35,32,28,34,29,23,96,89,77,0.00,40.00,19,9,23,0.00
2013-1-30,28,18,8,23,11,1,82,74,66,0.00,40.00,25,16,30,0.00
2013-1-31,8,-2,-8,3,-10,-17,76,68,64,0.00,40.00,24,18,32,0.00
2013-2-1,11,-1,-12,7,-9,-18,82,70,57,0.00,40.00,13,7,19,0.00
2013-2-2,12,8,2,9,2,-2,85,76,61,0.00,40.00,9,5,14,0.00
2013-2-3,16,11,4,9,5,0,88,76,63,0.00,40.00,17,7,24,0.00
2013-2-4,21,10,1,14,2,-4,89,72,43,0.00,40.00,19,6,24,0.00
2013-2-5,31,21,3,28,17,0,95,82,63,0.00,40.00,21,10,26,0.00
2013-2-6,33,19,0,27,14,-2,94,83,65,0.00,40.00,15,7,19,0.00
2013-2-7,26,24,16,25,21,14,96,89,77,0.00,40.00,20,12,22,0.00
2013-2-8,26,24,23,21,18,14,86,78,68,0.00,40.00,17,8,22,0.00
2013-2-9,33,29,26,28,26,21,93,88,84,0.00,40.00,23,14,29,0.00
2013-2-10,35,32,29,34,30,27,97,94,89,0.00,40.00,19,10,26,0.01
2013-2-11,29,24,16,28,19,10,96,81,72,0.00,40.00,24,17,34,0.01
2013-2-12,36,24,15,23,17,9,87,76,57,0.00,40.00,17,10,23,0.00
2013-2-13,38,28,15,34,24,14,95,84,62,0.00,40.00,11,7,14,0.00
2013-2-14,34,26,11,32,18,1,96,75,43,0.00,40.00,16,10,22,0.00
2013-2-15,17,9,2,3,1,-4,85,70,52,0.00,40.00,14,9,19,0.00
2013-2-16,20,11,3,10,4,0,90,74,50,0.00,40.00,11,4,14,0.00
2013-2-17,32,22,8,23,16,3,86,75,67,0.00,40.00,24,15,32,0.00
2013-2-18,33,22,4,30,17,0,95,80,70,0.00,40.00,26,16,32,0.00
2013-2-19,5,0,-7,0,-7,-13,82,71,60,0.00,40.00,24,17,32,0.00
2013-2-20,17,3,-12,1,-7,-17,79,65,45,0.00,40.00,9,4,11,0.00
2013-2-21,20,13,2,10,5,-2,82,69,57,0.00,40.00,17,8,22,0.00
2013-2-22,32,22,14,21,18,10,95,86,57,0.00,40.00,15,9,24,0.01
2013-2-23,25,17,7,19,13,5,95,87,72,0.00,40.00,12,6,15,0.01
2013-2-24,38,19,-1,27,11,-2,91,74,39,0.00,40.00,7,2,7,0.00
2013-2-25,37,26,10,25,21,9,95,81,56,0.00,40.00,6,2,7,0.00
2013-2-26,35,24,7,27,20,5,96,84,65,0.00,40.00,18,9,22,0.00
2013-2-27,40,31,26,27,24,21,87,74,49,0.00,40.00,20,13,26,0.00
2013-2-28,30,27,23,23,21,18,87,76,68,0.00,40.00,17,9,19,0.00
2013-3-1,30,23,14,18,15,9,83,70,57,0.00,40.00,14,8,17,0.00
2013-3-2,31,18,5,16,10,3,92,73,42,0.00,40.00,7,3,8,0.00
2013-3-3,31,25,17,12,11,7,72,55,43,0.00,40.00,15,10,21,0.00
2013-3-4,27,25,22,23,19,10,96,80,50,0.00,40.00,20,10,26,0.00
2013-3-5,31,25,18,25,22,16,97,89,69,0.00,40.00,16,8,19,0.01
2013-3-6,31,22,8,19,16,5,90,77,55,0.00,40.00,14,6,18,0.00
2013-3-7,29,17,0,18,11,-2,92,79,59,0.00,40.00,13,6,17,0.00
2013-3-8,37,28,16,28,23,14,94,82,66,0.00,40.00,17,10,22,0.00
2013-3-9,36,35,34,36,34,28,96,95,76,0.00,40.00,21,11,26,0.00
2013-3-10,34,32,29,34,28,25,96,86,79,0.00,40.00,27,19,34,0.00
2013-3-11,31,27,20,25,21,14,86,77,63,0.00,40.00,21,13,24,0.00
2013-3-12,28,24,20,21,16,12,87,72,61,0.00,40.00,25,14,36,0.00
2013-3-13,27,19,9,19,13,7,91,77,58,0.00,40.00,14,7,20,0.00
2013-3-14,42,31,24,27,23,18,95,74,46,0.00,40.00,15,7,20,0.00
2013-3-15,34,31,27,32,29,25,96,92,87,0.00,40.00,14,7,18,0.00
2013-3-16,27,22,12,27,14,3,96,74,50,0.00,40.00,16,11,21,0.00
2013-3-17,28,18,7,23,8,0,78,65,54,0.00,40.00,19,11,25,0.00
2013-3-18,31,21,11,30,17,5,96,82,70,0.00,40.00,29,21,42,0.00
2013-3-19,19,11,5,5,1,-2,81,65,47,0.00,40.00,24,17,32,0.00
2013-3-20,19,11,3,3,0,-4,71,60,47,0.00,40.00,24,14,32,0.00
2013-3-21,28,14,-1,9,3,-6,82,63,40,0.00,40.00,7,3,8,0.00
2013-3-22,36,20,4,18,10,1,88,65,35,0.00,40.00,6,3,7,0.00
2013-3-23,36,24,13,23,16,10,92,73,45,0.00,40.00,9,4,12,0.00
2013-3-24,33,28,22,28,22,19,92,81,57,0.00,40.00,19,9,22,0.00
2013-3-25,37,29,23,25,19,16,89,65,45,0.00,40.00,15,11,22,0.00
2013-3-26,36,25,17,23,20,16,92,80,56,0.00,40.00,11,6,14,0.00
2013-3-27,41,30,17,36,19,16,96,70,38,0.00,40.00,6,2,8,0.00
2013-3-28,41,32,22,28,24,19,90,74,57,0.00,40.00,11,6,13,0.00
2013-3-29,49,40,32,41,34,28,87,79,67,0.00,40.00,13,9,19,0.00
2013-3-30,48,42,33,43,37,-100,97,86,72,0.00,40.00,20,11,27,0.00
2013-3-31,39,33,24,32,25,14,97,74,45,0.00,40.00,25,15,34,0.00
2013-4-1,34,25,18,18,13,12,78,61,42,0.00,40.00,19,12,25,0.00
2013-4-2,37,28,20,19,16,12,88,62,38,0.00,40.00,16,8,20,0.00
2013-4-3,46,35,24,32,25,18,94,69,50,0.00,40.00,23,11,31,0.00
2013-4-4,50,41,32,36,29,25,88,62,38,0.00,40.00,23,12,31,0.00
2013-4-5,40,33,27,34,28,19,96,80,53,0.00,40.00,19,9,26,0.00
2013-4-6,56,44,36,48,36,28,95,74,59,0.00,40.00,26,15,35,0.00
2013-4-7,49,40,33,43,36,32,96,86,68,0.00,40.00,15,6,18,0.00
2013-4-8,48,44,40,45,42,39,96,93,87,0.00,40.00,17,9,22,0.00
2013-4-9,41,38,33,39,34,28,96,86,62,0.00,40.00,26,16,31,0.01
2013-4-10,35,33,29,32,28,21,96,82,58,0.00,40.00,25,14,37,0.01
2013-4-11,35,33,30,34,30,25,96,91,65,0.00,40.00,22,13,30,0.02
2013-4-12,36,31,27,30,28,27,96,91,72,0.00,40.00,13,9,16,0.01
2013-4-13,38,31,28,28,25,21,96,80,52,0.00,40.00,15,7,19,0.00
2013-4-14,38,33,30,37,30,23,96,89,72,0.00,40.00,25,14,33,0.00
2013-4-15,38,35,31,34,28,25,90,77,67,0.00,40.00,29,16,40,0.00
2013-4-16,45,36,31,30,28,27,89,72,51,0.00,40.00,15,8,21,0.00
2013-4-17,39,36,33,36,32,28,96,87,74,0.00,40.00,20,9,29,0.00
2013-4-18,35,32,31,34,31,30,96,96,95,0.00,40.00,26,16,32,0.04
2013-4-19,38,33,29,30,24,18,96,73,47,0.00,40.00,24,16,34,0.03
2013-4-20,42,31,19,21,16,9,91,57,28,0.00,40.00,10,4,12,0.00
2013-4-21,51,41,34,48,37,21,95,86,58,0.00,40.00,22,13,32,0.00
2013-4-22,40,36,31,39,33,30,96,91,67,0.00,40.00,22,12,26,0.04
2013-4-23,40,33,26,30,24,18,96,72,42,0.00,40.00,17,10,26,0.04
2013-4-24,48,36,26,36,29,25,93,76,44,0.00,40.00,21,10,29,0.00
2013-4-25,51,40,30,34,29,27,93,69,38,0.00,40.00,19,10,26,0.00
2013-4-26,71,57,45,45,40,32,76,54,29,0.00,40.00,22,11,30,0.00
2013-4-27,74,58,40,50,42,37,88,58,28,0.00,40.00,15,6,21,0.00
2013-4-28,81,63,49,55,49,45,90,64,30,0.00,40.00,24,14,34,0.00
2013-4-29,74,61,47,59,49,37,94,68,41,0.00,40.00,13,7,19,0.00
2013-4-30,69,64,56,61,47,30,88,58,26,0.00,40.00,22,13,32,0.00
2013-5-1,56,40,33,41,36,32,96,87,46,0.00,40.00,18,9,24,0.01
2013-5-2,46,39,35,36,28,23,95,66,45,0.00,40.00,22,13,27,0.01
2013-5-3,36,34,32,34,30,27,96,87,68,0.00,40.00,22,15,28,0.00
2013-5-4,49,39,33,43,37,32,97,92,79,0.00,40.00,18,12,22,0.00
2013-5-5,64,50,39,50,43,37,95,79,54,0.00,40.00,11,6,14,0.00
2013-5-6,74,60,42,52,46,41,95,65,32,0.00,40.00,7,3,10,0.00
2013-5-7,77,64,48,55,48,43,95,59,31,0.00,40.00,10,4,14,0.00
2013-5-8,76,64,56,59,53,48,95,71,39,0.00,40.00,12,4,24,0.00
2013-5-9,60,54,44,57,51,30,95,87,58,0.00,40.00,26,13,31,0.00
2013-5-10,67,51,36,39,27,-100,82,47,18,0.00,40.00,15,7,19,0.00
2013-5-11,56,48,39,41,27,-100,74,47,30,0.00,40.00,28,16,44,0.00
2013-5-12,59,46,33,28,24,19,74,44,21,0.00,40.00,16,8,26,0.00
2013-5-13,78,58,38,46,35,23,63,44,30,0.00,40.00,25,13,32,0.00
2013-5-14,98,75,54,55,46,32,76,40,16,0.00,40.00,29,14,39,0.00
2013-5-15,77,65,53,55,48,43,85,55,35,0.00,40.00,17,9,27,0.00
2013-5-16,83,66,53,52,28,-100,73,43,26,0.00,40.00,16,7,24,0.00
2013-5-17,69,58,54,57,49,-100,96,85,31,0.00,40.00,15,9,20,0.00
2013-5-18,79,67,57,66,61,55,95,82,59,0.00,40.00,23,12,28,0.01
2013-5-19,79,69,65,68,65,63,95,87,67,0.00,40.00,28,11,39,0.00
2013-5-20,71,65,60,64,60,55,94,83,58,0.00,40.00,22,13,35,0.00
2013-5-21,65,59,52,59,56,50,95,88,69,0.00,40.00,13,8,19,0.00
2013-5-22,53,49,46,50,48,43,95,94,84,0.00,40.00,19,13,25,0.00
2013-5-23,63,53,43,45,37,30,91,57,29,0.00,40.00,21,11,24,0.00
2013-5-24,69,55,40,52,39,30,88,56,33,0.00,40.00,19,8,26,0.00
2013-5-25,57,54,53,54,49,45,94,83,72,0.00,40.00,21,13,31,0.00
2013-5-26,55,52,50,52,46,41,90,80,68,0.00,40.00,22,11,31,0.00
2013-5-27,58,55,53,55,53,52,96,92,86,0.00,40.00,17,10,25,0.00
2013-5-28,60,56,53,57,55,52,95,94,90,0.00,40.00,11,5,16,0.00
2013-5-29,75,64,51,72,61,50,95,90,78,0.00,40.00,26,8,35,0.00
2013-5-30,74,68,64,66,64,61,95,87,70,0.00,40.00,26,16,36,0.00
2013-5-31,76,68,62,63,55,46,95,64,36,0.00,40.00,29,7,39,0.00
2013-6-1,72,61,55,64,55,52,90,81,56,0.00,40.00,17,6,25,0.00
2013-7-31,76,69,62,59,57,54,87,67,47,0.00,40.00,16,7,22,0.00
2013-8-1,83,68,52,64,56,50,94,70,37,0.00,40.00,8,3,12,0.00
2013-8-2,78,66,56,63,56,52,94,71,42,0.00,40.00,9,4,13,0.00
2013-8-3,79,65,49,59,52,48,95,67,35,0.00,40.00,9,3,18,0.00
2013-8-4,73,62,48,61,55,46,95,78,53,0.00,40.00,7,3,9,0.00
2013-8-5,82,69,60,68,63,57,95,82,58,0.00,40.00,11,6,15,0.00
2013-8-6,83,71,54,68,63,54,95,76,51,0.00,40.00,14,-17,20,0.00
2013-8-7,76,64,57,61,57,50,95,80,39,0.00,40.00,12,6,18,0.00
2013-8-8,74,63,53,63,57,52,95,83,53,0.00,40.00,10,3,12,0.00
2013-8-9,75,66,55,63,53,48,95,67,41,0.00,40.00,14,6,21,0.00
2013-8-10,77,65,52,61,55,50,95,72,42,0.00,40.00,6,2,12,0.00
2013-8-11,83,69,62,70,63,59,95,83,47,0.00,40.00,9,3,12,0.00
2013-10-27,28,28,28,27,27,27,94,94,94,0.00,40.00,7,7,8,0.00
2013-10-28,-200,0,200,-100,-100,-100,56,56,56,0.00,40.00,6,6,11,0.00
2013-10-31,40,40,40,36,36,36,87,87,87,0.00,40.00,12,12,19,0.00
2013-11-2,-200,0,200,-100,-100,-100,0,0,100,0.00,40.00,6,6,8,0.00
2013-11-8,27,27,27,25,25,25,93,93,93,0.00,40.00,4,4,8,0.00
2013-11-9,-200,0,200,-100,-100,-100,0,0,100,0.00,40.00,13,13,16,0.00
2013-11-10,37,36,34,30,30,30,85,80,76,0.00,40.00,8,7,13,0.00
2013-11-11,27,27,27,18,18,18,66,66,66,0.00,40.00,9,9,17,0.00
2013-11-12,26,23,19,14,12,9,75,64,48,0.00,40.00,11,9,14,0.00
2013-11-13,24,24,24,14,14,14,65,65,65,0.00,40.00,0,-999,0,0.00
2013-11-30,37,27,26,27,7,-100,89,65,62,0.00,40.00,8,6,12,0.00
2013-12-1,34,26,18,25,22,18,96,83,66,0.00,40.00,7,4,8,0.00
2013-12-2,39,31,27,34,27,23,94,84,71,0.00,40.00,13,8,19,0.00
2013-12-3,33,33,33,32,32,32,97,97,97,0.00,40.00,9,7,13,0.00
2013-12-4,32,29,15,30,27,10,97,95,82,0.00,40.00,19,9,27,0.01
2013-12-5,10,5,-1,5,-1,-8,81,77,69,0.00,40.00,21,16,27,0.01
2013-12-6,-1,-5,-10,-8,-11,-15,78,74,71,0.00,40.00,10,8,13,0.00
2013-12-7,-12,-12,-12,-17,-17,-17,79,79,79,0.00,40.00,7,7,9,0.00